CUTE-1.7+APD II (CO-65)

Last updated on Sun Jun 21 2026 00:03:20 GMT+0000 (Coordinated Universal Time)

1 32785U 08021C 26171.43070376 .00004727 00000+0 29901-3 0 9996 2 32785 97.8278 152.9166 0009448 28.6866 331.4880 15.09477800985683
UTC large
Height (km)
Speed (km/s)
/
Latitude / Longitude
Inclination (degrees)
Orbital Period (minutes)
Azimuth
Elevation
Range (km)
Doppler Factor

Next 0 passes for location: London (51.5072 / 0.1276)

No passes found over London.
CUTE-1.7+APD II (CO-65)